| time (UTC) | temp C | wind direction | speed KPH | gust KPH | rain 1hr cm | rain 24hr cm | rain mn cm | humidity % | barometer mb |
| 20260502123028 | 13 | 0 | 0.0 | 1.6 | 0.03 | 0.36 | 0.36 | 96 | 1011.8 |
| 20260502121528 | 13 | 0 | 0.0 | 3.2 | 0.03 | 0.36 | 0.36 | 96 | 1011.3 |
| 20260502114527 | 13 | 202 | 0.0 | 4.8 | 0.05 | 0.36 | 0.36 | 97 | 1011.5 |
| 20260502113029 | 13 | 0 | 0.0 | 1.6 | 0.03 | 0.33 | 0.33 | 97 | 1010.6 |
| 20260502111528 | 13 | 0 | 0.0 | 3.2 | 0.03 | 0.33 | 0.33 | 97 | 1011.5 |
| 20260502110036 | 13 | 159 | 0.0 | 4.8 | 0.00 | 0.30 | 0.30 | 96 | 1012.1 |
| 20260502104527 | 13 | 187 | 1.6 | 6.4 | 0.00 | 0.30 | 0.30 | 97 | 1012.3 |
| 20260502103033 | 13 | 173 | 1.6 | 3.2 | 0.00 | 0.30 | 0.30 | 97 | 1011.7 |
| 20260502101544 | 13 | 173 | 0.0 | 1.6 | 0.03 | 0.30 | 0.30 | 96 | 1011.1 |
| 20260502091532 | 13 | 0 | 0.0 | 0.0 | 0.08 | 0.28 | 0.28 | 96 | 1011.0 |
| 20260502071529 | 13 | 0 | 0.0 | 0.0 | 0.10 | 0.15 | 0.15 | 95 | 1011.4 |
| 20260502070050 | 13 | 0 | 0.0 | 0.0 | 0.10 | 0.13 | 0.13 | 95 | 1012.0 |
| 20260502064529 | 13 | 0 | 0.0 | 3.2 | 0.08 | 0.10 | 0.10 | 95 | 1012.2 |
| 20260502063036 | 13 | 0 | 0.0 | 0.0 | 0.08 | 0.08 | 0.08 | 95 | 1012.5 |
| 20260502061527 | 13 | 0 | 0.0 | 0.0 | 0.05 | 0.05 | 0.05 | 95 | 1012.4 |
| 20260502060030 | 13 | 0 | 0.0 | 0.0 | 0.03 | 0.03 | 0.03 | 94 | 1012.4 |
| 20260502054530 | 13 | 0 | 0.0 | 0.0 | 0.03 | 0.03 | 0.03 | 94 | 1012.1 |
| 20260502053027 | 13 | 0 | 0.0 | 0.0 | 0.00 | 0.00 | 0.00 | 94 | 1012.5 |
| 20260502051528 | 13 | 0 | 0.0 | 0.0 | 0.00 | 0.00 | 0.00 | 94 | 1012.2 |
| 20260502050028 | 13 | 0 | 0.0 | 0.0 | 0.00 | 0.00 | 0.00 | 93 | 1012.4 |
| 20260502044528 | 13 | 0 | 0.0 | 0.0 | 0.00 | 0.00 | 0.00 | 93 | 1012.4 |
| 20260502043031 | 13 | 0 | 0.0 | 0.0 | 0.00 | 0.00 | 0.00 | 93 | 1012.5 |
| 20260502041528 | 13 | 0 | 0.0 | 0.0 | 0.00 | 0.00 | 0.00 | 93 | 1013.0 |
| 20260502040029 | 14 | 0 | 0.0 | 0.0 | 0.00 | 0.00 | 0.00 | 92 | 1013.2 |
| 20260502034530 | 14 | 0 | 0.0 | 0.0 | 0.00 | 0.00 | 0.00 | 92 | 1013.1 |
| 20260502033029 | 14 | 0 | 0.0 | 0.0 | 0.00 | 0.00 | 0.00 | 91 | 1013.1 |
| 20260502031528 | 14 | 0 | 0.0 | 0.0 | 0.00 | 0.00 | 0.00 | 90 | 1013.2 |
| 20260502030028 | 14 | 0 | 0.0 | 0.0 | 0.00 | 0.00 | 0.00 | 89 | 1013.0 |
| 20260502024535 | 14 | 0 | 0.0 | 0.0 | 0.00 | 0.00 | 0.00 | 89 | 1012.7 |
| 20260502023028 | 14 | 0 | 0.0 | 0.0 | 0.00 | 0.00 | 0.00 | 89 | 1013.1 |
| 20260502021530 | 15 | 0 | 0.0 | 0.0 | 0.00 | 0.00 | 0.00 | 89 | 1013.3 |
| 20260502020031 | 15 | 0 | 0.0 | 0.0 | 0.00 | 0.00 | 0.00 | 89 | 1013.3 |
| 20260502014530 | 15 | 0 | 0.0 | 0.0 | 0.00 | 0.00 | 0.00 | 88 | 1012.7 |
| 20260502013040 | 15 | 0 | 0.0 | 0.0 | 0.00 | 0.00 | 0.00 | 87 | 1012.4 |
| 20260502011526 | 15 | 0 | 0.0 | 0.0 | 0.00 | 0.00 | 0.00 | 86 | 1012.3 |
| 20260502010027 | 15 | 0 | 0.0 | 0.0 | 0.00 | 0.00 | 0.00 | 86 | 1012.2 |
| 20260502004529 | 15 | 0 | 0.0 | 0.0 | 0.00 | 0.00 | 0.00 | 85 | 1012.2 |
| 20260502003028 | 15 | 0 | 0.0 | 0.0 | 0.00 | 0.00 | 0.00 | 83 | 1012.1 |
| 20260502001527 | 15 | 0 | 0.0 | 0.0 | 0.00 | 0.00 | 0.00 | 82 | 1012.1 |
| 20260502000031 | 16 | 0 | 0.0 | 0.0 | 0.00 | 0.00 | 0.00 | 81 | 1012.0 |
| 20260501234530 | 16 | 0 | 0.0 | 0.0 | 0.00 | 0.00 | 0.00 | 81 | 1012.0 |
| 20260501233030 | 16 | 0 | 0.0 | 0.0 | 0.00 | 0.00 | 0.00 | 79 | 1012.0 |
| 20260501231527 | 16 | 0 | 0.0 | 0.0 | 0.00 | 0.00 | 0.00 | 75 | 1012.1 |
| 20260501230034 | 17 | 0 | 0.0 | 0.0 | 0.00 | 0.00 | 0.00 | 74 | 1012.1 |
| 20260501224527 | 17 | 0 | 0.0 | 0.0 | 0.00 | 0.00 | 0.00 | 74 | 1012.2 |
| 20260501223030 | 17 | 0 | 0.0 | 0.0 | 0.00 | 0.00 | 0.00 | 69 | 1011.9 |
| 20260501221530 | 17 | 0 | 0.0 | 0.0 | 0.00 | 0.00 | 0.00 | 71 | 1011.7 |
| 20260501220056 | 17 | 0 | 0.0 | 1.6 | 0.00 | 0.00 | 0.00 | 70 | 1011.8 |
| 20260501214533 | 17 | 0 | 0.0 | 3.2 | 0.00 | 0.00 | 0.00 | 69 | 1012.2 |
| 20260501213026 | 17 | 0 | 0.0 | 4.8 | 0.00 | 0.00 | 0.00 | 70 | 1012.2 |
| 20260501211528 | 17 | 0 | 0.0 | 1.6 | 0.00 | 0.00 | 0.00 | 71 | 1012.3 |
| 20260501210035 | 17 | 0 | 0.0 | 3.2 | 0.00 | 0.00 | 0.00 | 71 | 1012.5 |
| 20260501204537 | 17 | 269 | 0.0 | 3.2 | 0.00 | 0.00 | 0.00 | 72 | 1013.0 |
| 20260501203033 | 17 | 0 | 0.0 | 4.8 | 0.00 | 0.00 | 0.00 | 73 | 1013.0 |
| 20260501201536 | 17 | 32 | 1.6 | 3.2 | 0.00 | 0.00 | 0.00 | 68 | 1013.1 |
| 20260501200030 | 17 | 0 | 0.0 | 4.8 | 0.00 | 0.00 | 0.00 | 71 | 1013.2 |
| 20260501194528 | 17 | 40 | 0.0 | 4.8 | 0.00 | 0.00 | 0.00 | 68 | 1013.4 |
| 20260501193038 | 17 | 40 | 0.0 | 3.2 | 0.00 | 0.00 | 0.00 | 66 | 1013.4 |
| 20260501191529 | 17 | 0 | 0.0 | 0.0 | 0.00 | 0.00 | 0.00 | 67 | 1013.2 |
| 20260501190028 | 17 | 0 | 0.0 | 3.2 | 0.00 | 0.00 | 0.00 | 69 | 1013.2 |
| 20260501184529 | 17 | 38 | 1.6 | 4.8 | 0.00 | 0.00 | 0.00 | 67 | 1013.3 |
| 20260501183027 | 17 | 36 | 0.0 | 3.2 | 0.00 | 0.00 | 0.00 | 67 | 1013.4 |
| 20260501181549 | 17 | 0 | 0.0 | 6.4 | 0.00 | 0.00 | 0.00 | 66 | 1013.8 |
| 20260501180028 | 17 | 22 | 0.0 | 4.8 | 0.00 | 0.00 | 0.00 | 66 | 1013.7 |
| 20260501174530 | 17 | 32 | 1.6 | 6.4 | 0.00 | 0.00 | 0.00 | 66 | 1013.7 |
| 20260501173028 | 17 | 0 | 0.0 | 4.8 | 0.00 | 0.00 | 0.00 | 66 | 1013.7 |
| 20260501171532 | 17 | 0 | 0.0 | 6.4 | 0.00 | 0.00 | 0.00 | 65 | 1013.9 |
| 20260501170028 | 17 | 0 | 0.0 | 6.4 | 0.00 | 0.00 | 0.00 | 67 | 1013.9 |
| 20260501164540 | 17 | 36 | 1.6 | 9.7 | 0.00 | 0.00 | 0.00 | 67 | 1014.0 |
| 20260501163039 | 17 | 0 | 0.0 | 4.8 | 0.00 | 0.00 | 0.00 | 66 | 1014.0 |
| 20260501161528 | 16 | 0 | 0.0 | 4.8 | 0.00 | 0.00 | 0.00 | 69 | 1013.8 |
| 20260501160047 | 16 | 33 | 1.6 | 6.4 | 0.00 | 0.00 | 0.00 | 68 | 1013.9 |
| 20260501154528 | 16 | 0 | 0.0 | 4.8 | 0.00 | 0.00 | 0.00 | 68 | 1013.8 |
| 20260501153033 | 16 | 40 | 3.2 | 8.0 | 0.00 | 0.00 | 0.00 | 66 | 1013.7 |
| 20260501151528 | 16 | 27 | 1.6 | 6.4 | 0.00 | 0.00 | 0.00 | 65 | 1013.5 |
| 20260501150042 | 16 | 45 | 0.0 | 8.0 | 0.00 | 0.00 | 0.00 | 67 | 1013.6 |
| 20260501144529 | 16 | 38 | 0.0 | 4.8 | 0.00 | 0.00 | 0.00 | 68 | 1013.7 |
| 20260501143057 | 16 | 0 | 1.6 | 4.8 | 0.00 | 0.00 | 0.00 | 70 | 1013.6 |